Location: Knowlton
(51.2333°N, 1.2667°E)
Time: 03:22:54
(UTC+00:00)

Cosmos 2034 Rocket - Pass Details

Date: 18 April 2021
Orbit: 959 x 999 km, 82.9° (Epoch: 06 May)

Event Time Altitude Azimuth Distance (km) Brightness Sun altitude
Rises 19:23:28 0° 184° (S) 3,644 6.8 -4.8°
Reaches altitude 10° 19:25:57 10° 184° (S) 2,706 6.1 -5.1°
Maximum altitude 19:32:09 82° 97° (E) 993 4.0 -6.0°
Drops below altitude 10° 19:38:28 10° 11° (NNE) 2,753 6.6 -6.9°
Sets 19:41:01 0° 11° (N) 3,712 7.3 -7.2°
